Location: Agua Fria
(10.3256°N, 66.8857°W)
Time: 00:11:46
(UTC+00:00)

Daily predictions for brighter satellites

Satellite Brightness Start Highest point End
(mag) Time Altitude Azimuth Time Altitude Azimuth Time Altitude Azimuth
DELTA 2 R/B (1) 4.2 00:02:54 10° SW 00:07:01 50° SSW 00:07:01 50° SSW
Delta 7925 Rocket 4.4 00:04:01 10° SW 00:10:14 61° SSE 00:10:14 61° SSE
Cosmos 1943 Rocket 4.5 00:12:12 10° WSW 00:16:12 20° WNW 00:20:12 10° NNW
CZ-4C R/B 3.7 07:28:12 59° E 07:28:12 59° E 07:36:24 10° SE
SL-16 R/B 4.4 07:32:54 10° SE 07:37:42 24° ENE 07:40:03 19° NE
Cosmos 1844 Rocket 4.0 07:52:13 36° ESE 07:52:13 36° ESE 07:55:59 10° SE
ARIANE 5 R/B 4.1 07:59:46 31° SSE 07:59:46 31° SSE 08:08:09 10° ESE
Cosmos 1605 Rocket 4.4 08:10:18 38° NNE 08:12:30 60° E 08:18:34 10° SSE
Cosmos 1727 Rocket 3.9 08:13:31 10° S 08:19:40 80° E 08:25:50 10° N
CZ-3 Stage 3 3.9 08:16:52 44° SW 08:20:50 89° SSE 08:56:09 10° ENE
ARIANE 5 R/B 2.5 08:24:34 47° SSE 08:24:34 47° SSE 08:27:27 10° ESE
ASTEX 1 3.8 08:25:32 10° SSE 08:30:24 59° E 08:33:10 25° NNE
Centaur AC-119 4.1 08:31:37 31° SSW 08:31:37 31° SSW 08:34:45 10° SSE
Cosmos 2237 Rocket 2.6 08:29:10 10° S 08:34:45 61° ESE 08:40:18 10° NNE
OAO 3 Rocket 3.8 08:38:27 43° SSW 08:38:27 43° SSW 08:42:20 10° SE
DASH 4.4 08:37:32 30° NW 08:40:49 41° N 08:44:32 10° E
Cosmos 1939 Rocket 3.3 08:43:02 49° S 08:43:02 49° S 08:45:53 10° S
CZ-3 R/B 3.4 08:32:31 32° W 08:43:02 54° NNW 08:50:59 10° NE
Meteor 1-24 Rocket 4.1 08:39:28 10° S 08:45:23 67° E 08:51:08 10° NNE
Cosmos 1844 4.0 08:51:30 42° WSW 08:51:30 42° WSW 08:56:37 10° S
Aurora 2 Rocket 2.5 08:52:57 45° SSE 08:52:57 45° SSE 08:55:25 10° SE
CZ-3C R/B 1.3 08:53:47 34° SE 08:53:47 34° SE 08:56:01 10° E
Cosmos 614 Rocket 4.0 08:53:41 48° W 08:53:53 48° WSW 08:58:43 10° S
Cosmos 1000 Rocket 4.4 08:48:13 10° SSW 08:54:24 65° W 09:00:37 10° N
EPKM 4.2 08:57:01 17° SE 08:57:01 17° SE 08:57:39 10° SE
Meteor 2-5 Rocket 3.9 08:51:07 10° S 08:57:03 80° E 09:02:59 10° N
Meteor 1-28 Rocket 3.9 08:54:00 10° S 08:56:01 33° SSW 08:56:01 33° SSW
Cosmos 2123 Rocket 3.9 08:54:44 10° S 09:01:00 90° WSW 09:07:14 10° N
FALCON 9 R/B 2.9 08:56:29 24° NW 09:04:44 89° SW 09:09:18 10° SE
CZ-4 R/B 4.0 09:00:30 10° NNE 09:05:15 71° ESE 09:09:55 10° S
SJ-11-01 4.2 09:06:27 10° N 09:11:05 68° WNW 09:15:44 10° SSW
Cosmos 1153 Rocket 4.4 09:05:16 10° N 09:11:27 71° W 09:17:44 10° S
ISS -2.8 09:12:35 20° N 09:14:32 44° NE 09:17:45 10° SE
CZ-4C R/B 4.3 09:13:16 21° W 09:15:38 23° WSW 09:22:23 10° SSW
Meteor 2-21 Rocket 4.4 09:11:09 10° SSW 09:17:14 63° W 09:23:17 10° N
NOAA 12 4.1 09:13:19 10° NNE 09:18:38 87° ESE 09:23:55 10° SSW
SL-16 R/B 3.3 09:15:38 10° SSW 09:20:56 31° WSW 09:25:07 15° NW
Aureole 1 4.4 09:20:31 10° SSW 09:23:20 41° WNW 09:26:19 10° N
Cosmos 1733 Rocket 3.8 09:27:11 13° NW 09:30:28 31° W 09:34:17 10° SSW
Cosmos 1340 Rocket 2.6 09:27:05 10° NNW 09:30:45 60° W 09:34:23 10° S
Centaur AC-112 3.6 09:29:23 17° W 09:32:23 64° NNW 09:47:37 10° ENE
SL-16 R/B 3.4 09:27:41 10° S 09:33:07 47° ESE 09:38:31 10° NNE
Cosmos 1844 Rocket 4.4 09:33:56 12° WSW 09:34:03 12° WSW 09:36:06 10° SW
Cosmos 2056 Rocket 3.9 09:29:30 10° S 09:34:49 71° E 09:40:09 10° NNE
Cosmos 2084 Rocket 3.6 09:33:41 12° NW 09:37:23 48° WSW 09:41:23 10° S
Iridium 4 Rocket 3.4 09:36:27 10° N 09:40:32 65° E 09:44:40 10° S
GPS 2-15 Rocket1 3.6 09:37:01 14° W 09:40:48 51° SSW 09:45:25 10° SE
ATLAS 2A CENTAUR R/B 3.8 09:44:23 10° NW 09:47:06 33° NE 09:53:05 10° E
Cosmos 1606 2.7 09:45:21 10° NNW 09:47:42 28° W 09:50:05 10° SSW
IRS-1D 4.3 09:47:31 10° NNW 09:51:32 26° WNW 09:55:34 10° SW
Cosmos 1371 Rocket 3.9 09:48:09 10° SSW 09:53:20 73° WNW 09:58:34 10° N
Cosmos 1484 Rocket 2.4 09:51:00 10° N 09:54:30 84° WNW 09:57:59 10° SSW
Cosmos 2100 Rocket 4.3 09:51:35 10° NNW 09:57:22 43° W 10:03:12 10° SSW
